Flag Weather past 2 weeks in Ojinaga, Chihuahua, Mexico

Now
64 °F

Sunny.


Feels Like: 64 °F
Forecast: 38 / 68 °F
Wind: 9 mph from Southwest

Location: Marfa Municipal Airport

Current Time: Nov 27, 2014 at 2:16:58 PM

Latest Report: Nov 27, 2014 at 1:35 PM


Visibility: 10 mi

Pressure: 30.38 "Hg

Humidity: 19%

Dew point: 21 °F

Location of OjinagaLocation

Historic Weather in Ojinaga — Graph

°F

Ojinaga temperature yesterday

Maximum temperature yesterday: 64 °F (at 11:55 AM)
Minimum temperature yesterday: 27 °F (at 4:15 AM)
Average temperature yesterday: 45 °F

Past Weeks' High & Low Weather Summary

 TemperatureHumidityPressure
High70 °F (Nov 15, 12:15 PM)100% (Nov 14, 6:35 AM)30.48 "Hg (Nov 14, 6:35 AM)
Low19 °F (Nov 13, 4:35 AM)12% (Nov 24, 3:15 PM)29.79 "Hg (Nov 23, 2:35 PM)
Average41 °F54%30.18 "Hg
* Reported Nov 12 1:15 PM — Nov 27 1:15 PM, Ojinaga, Weather by CustomWeather, © 2014

Note: Actual official high and low records may vary slightly from our data, if they occured in-between our weather recording intervals... More about our weather records

Advertising

Ojinaga weather history for previous 24 hours

 ConditionsComfort  
Time TempWeatherWind HumidityBarometerVisibility
1:15 PM
Nov 27
64 °FSunny.8 mph19%30.39 "Hg10 mi
12:55 PM64 °FSunny.10 mph19%30.39 "Hg10 mi
12:35 PM64 °FSunny.10 mph19%30.40 "Hg10 mi
12:15 PM64 °FSunny.7 mph19%30.41 "Hg10 mi
11:55 AM64 °FSunny.7 mph19%30.42 "Hg10 mi
11:35 AM63 °FSunny.8 mph20%30.43 "Hg10 mi
11:15 AM61 °FSunny.8 mph20%30.45 "Hg10 mi
10:55 AM61 °FSunny.7 mph20%30.45 "Hg10 mi
10:35 AM61 °FSunny.8 mph22%30.46 "Hg10 mi
10:15 AM59 °FSunny.8 mph21%30.47 "Hg10 mi
9:55 AM57 °FSunny.7 mph23%30.48 "Hg10 mi
9:35 AM57 °FSunny.8 mph23%30.48 "Hg10 mi
9:15 AM55 °FSunny.5 mph24%30.48 "Hg10 mi
8:55 AM54 °FSunny.3 mph28%30.48 "Hg10 mi
8:35 AM52 °FSunny.No wind30%30.48 "Hg10 mi
8:15 AM48 °FSunny.No wind40%30.47 "Hg10 mi
7:55 AM45 °FSunny.No wind42%30.47 "Hg10 mi
7:35 AM39 °FSunny.3 mph52%30.46 "Hg10 mi
7:15 AM34 °FSunny.5 mph60%30.46 "Hg10 mi
6:55 AM28 °FSunny.6 mph69%30.45 "Hg10 mi
6:35 AM28 °FSunny.5 mph69%30.45 "Hg10 mi
5:55 AM30 °FClear.9 mph64%30.44 "Hg10 mi
5:35 AM28 °FClear.5 mph69%30.43 "Hg10 mi
5:15 AM30 °FClear.8 mph64%30.42 "Hg10 mi
4:55 AM28 °FClear.8 mph69%30.42 "Hg10 mi
4:35 AM27 °FClear.9 mph74%30.41 "Hg10 mi
3:55 AM27 °FClear.6 mph74%30.41 "Hg10 mi
3:35 AM27 °FClear.7 mph74%30.41 "Hg10 mi
3:15 AM27 °FClear.6 mph74%30.41 "Hg10 mi
2:55 AM28 °FClear.7 mph69%30.41 "Hg10 mi
2:35 AM28 °FClear.5 mph69%30.40 "Hg10 mi
1:55 AM30 °FClear.3 mph59%30.40 "Hg10 mi
1:35 AM34 °FClear.5 mph56%30.40 "Hg10 mi
1:15 AM30 °FClear.9 mph64%30.39 "Hg10 mi
12:55 AM28 °FClear.8 mph69%30.39 "Hg10 mi
12:35 AM28 °FClear.8 mph69%30.39 "Hg10 mi
12:15 AM28 °FClear.7 mph69%30.39 "Hg10 mi
11:55 PM
Nov 26
30 °FClear.6 mph59%30.39 "Hg10 mi
11:35 PM30 °FClear.5 mph64%30.39 "Hg10 mi
11:15 PM30 °FClear.7 mph64%30.39 "Hg10 mi
10:55 PM30 °FClear.6 mph64%30.39 "Hg10 mi
10:35 PM30 °FClear.3 mph59%30.39 "Hg10 mi
10:15 PM30 °FClear.6 mph64%30.38 "Hg10 mi
9:55 PM34 °FClear.6 mph56%30.38 "Hg10 mi
9:35 PM34 °FClear.6 mph56%30.38 "Hg10 mi
9:15 PM34 °FClear.7 mph51%30.38 "Hg10 mi
8:55 PM36 °FClear.9 mph48%30.38 "Hg10 mi
8:35 PM36 °FClear.9 mph48%30.38 "Hg10 mi
7:55 PM36 °FClear.5 mph48%30.36 "Hg10 mi
7:35 PM39 °FClear.No wind42%30.36 "Hg10 mi
7:15 PM37 °FClear.7 mph45%30.35 "Hg10 mi
6:55 PM39 °FClear.7 mph42%30.34 "Hg10 mi
6:35 PM45 °FClear.6 mph34%30.34 "Hg10 mi
6:15 PM46 °FClear.5 mph32%30.33 "Hg10 mi
5:55 PM45 °FClear.No wind34%30.33 "Hg10 mi
5:35 PM48 °FClear.8 mph27%30.32 "Hg10 mi
4:35 PM59 °FSunny.10 mph20%30.30 "Hg10 mi
4:15 PM61 °FSunny.12 mph19%30.30 "Hg10 mi
3:55 PM63 °FSunny.13 mph17%30.29 "Hg10 mi
3:35 PM63 °FSunny.14 mph17%30.30 "Hg10 mi
3:15 PM64 °FSunny.15 mph16%30.29 "Hg10 mi
2:55 PM64 °FSunny.14 mph16%30.29 "Hg10 mi
2:35 PM64 °FSunny.15 mph16%30.29 "Hg10 mi
Weather by CustomWeather, © 2014

See weather overviewHow to use our weather pages